EW4156 Weather Reports


time (UTC)temp
C
wind
direction
speed
KPH
gust
KPH
rain 1hr
cm
rain 24hr
cm
rain mn
cm
humidity
%
barometer
mb
20260506013015 21 276 0.0 3.2 0.00 0.00 0.00 46 1014.9
20260506011531 21 254 0.0 1.6 0.00 0.00 0.00 46 1014.5
20260506010012 22 266 0.0 1.6 0.00 0.00 0.00 45 1014.8
20260506004525 22 272 0.0 1.6 0.00 0.00 0.00 44 1014.7
20260506003011 22 264 0.0 1.6 0.00 0.00 0.00 43 1014.9
20260506001511 23 283 0.0 1.6 0.00 0.00 0.00 43 1014.8
20260506000010 23 298 0.0 4.8 0.00 0.00 0.00 43 1014.6
20260505234509 23 291 0.0 3.2 0.00 0.00 0.00 42 1014.6
20260505233016 24 259 0.0 3.2 0.00 0.00 0.00 41 1014.6
20260505231508 25 266 0.0 6.4 0.00 0.00 0.00 41 1014.5
20260505230008 26 202 0.0 1.6 0.00 0.00 0.00 39 1014.4
20260505224505 26 247 0.0 3.2 0.00 0.00 0.00 40 1014.4
20260505223015 26 201 1.6 4.8 0.00 0.00 0.00 38 1014.3
20260505221504 27 269 0.0 3.2 0.00 0.00 0.00 37 1014.4
20260505220005 27 247 0.0 6.4 0.00 0.00 0.00 35 1014.1
20260505214505 28 219 1.6 6.4 0.00 0.00 0.00 35 1014.3
20260505213100 28 221 0.0 3.2 0.00 0.00 0.00 35 1014.3
20260505211558 28 236 1.6 4.8 0.00 0.00 0.00 37 1014.6
20260505210055 28 263 0.0 4.8 0.00 0.00 0.00 36 1014.5
20260505204558 27 157 1.6 4.8 0.00 0.00 0.00 37 1014.9
20260505203050 27 232 1.6 6.4 0.00 0.00 0.00 37 1015.2
20260505201549 26 229 1.6 4.8 0.00 0.00 0.00 39 1015.3
20260505200042 26 260 0.0 3.2 0.00 0.00 0.00 41 1015.5
20260505194541 25 328 1.6 8.0 0.00 0.00 0.00 39 1015.7
20260505193042 25 238 3.2 8.0 0.00 0.00 0.00 42 1016.1
20260505191537 25 164 1.6 4.8 0.00 0.00 0.00 41 1015.9
20260505190035 26 221 0.0 6.4 0.00 0.00 0.00 42 1016.1
20260505184533 26 190 0.0 4.8 0.00 0.00 0.00 40 1016.3
20260505183045 26 263 0.0 3.2 0.00 0.00 0.00 41 1016.4
20260505181531 26 189 1.6 4.8 0.00 0.00 0.00 43 1016.6
20260505180029 25 240 1.6 8.0 0.00 0.00 0.00 40 1017.0
20260505174529 26 188 0.0 4.8 0.00 0.00 0.00 41 1017.0
20260505173026 25 169 0.0 6.4 0.00 0.00 0.00 43 1017.4
20260505171524 25 232 0.0 4.8 0.00 0.00 0.00 43 1017.5
20260505170028 25 190 1.6 4.8 0.00 0.00 0.00 43 1017.5
20260505164519 25 252 1.6 6.4 0.00 0.00 0.00 44 1017.4
20260505163015 23 243 0.0 4.8 0.00 0.00 0.00 51 1017.4
20260505161512 23 314 3.2 9.7 0.00 0.00 0.00 49 1017.5
20260505153005 22 292 1.6 6.4 0.00 0.00 0.00 53 1017.8
20260505151600 21 254 0.0 6.4 0.00 0.00 0.00 57 1017.7
20260505124535 14 297 0.0 0.0 0.00 0.00 0.00 76 1017.4
20260505123025 14 298 0.0 0.0 0.00 0.00 0.00 77 1017.2
20260505121524 13 298 0.0 0.0 0.00 0.00 0.00 77 1016.9
20260505120031 13 298 0.0 0.0 0.00 0.00 0.00 78 1017.1
20260505114520 12 299 0.0 0.0 0.00 0.00 0.00 81 1017.0
20260505113018 11 299 0.0 0.0 0.00 0.00 0.00 82 1016.6
20260505111518 11 299 0.0 0.0 0.00 0.00 0.00 82 1016.5
20260505101512 11 299 0.0 0.0 0.00 0.00 0.00 79 1016.4
20260505100010 11 298 0.0 0.0 0.00 0.00 0.00 78 1016.6
20260505094511 12 298 0.0 0.0 0.00 0.00 0.00 78 1016.5
20260505093008 12 299 0.0 0.0 0.00 0.00 0.00 78 1016.3
20260505091506 12 299 0.0 0.0 0.00 0.00 0.00 77 1016.3
20260505090005 12 299 0.0 0.0 0.00 0.00 0.00 77 1016.6
20260505084510 12 299 0.0 0.0 0.00 0.00 0.00 77 1016.7
20260505083002 12 298 0.0 0.0 0.00 0.00 0.00 77 1016.6
20260505081504 12 299 0.0 0.0 0.00 0.00 0.00 78 1016.5
20260505080112 12 298 0.0 0.0 0.00 0.00 0.00 78 1016.6
20260505074558 12 299 0.0 0.0 0.00 0.00 0.00 77 1016.5
20260505073101 12 298 0.0 0.0 0.00 0.00 0.00 76 1016.5
20260505071556 12 299 0.0 0.0 0.00 0.00 0.00 75 1016.5
20260505070053 13 300 0.0 0.0 0.00 0.00 0.00 74 1016.5
20260505064558 13 297 0.0 0.0 0.00 0.00 0.00 73 1016.6
20260505063052 13 299 0.0 0.0 0.00 0.00 0.00 72 1016.6
20260505061551 13 299 0.0 0.0 0.00 0.00 0.00 71 1016.6
20260505060045 13 298 0.0 0.0 0.00 0.00 0.00 71 1016.7
20260505054545 14 298 0.0 0.0 0.00 0.00 0.00 71 1016.7
20260505053105 14 299 0.0 0.0 0.00 0.00 0.00 69 1016.8
20260505051539 15 299 0.0 0.0 0.00 0.00 0.00 66 1016.8
20260505041537 15 297 0.0 0.0 0.00 0.00 0.00 65 1016.7
20260505040026 15 298 0.0 0.0 0.00 0.00 0.00 63 1016.6
20260505034529 16 297 0.0 0.0 0.00 0.00 0.00 62 1016.8
20260505033025 16 298 0.0 0.0 0.00 0.00 0.00 61 1016.9
20260505031526 16 298 0.0 0.0 0.00 0.00 0.00 60 1016.8
20260505030024 16 298 0.0 1.6 0.00 0.00 0.00 57 1016.8
20260505024523 17 298 0.0 0.0 0.00 0.00 0.00 55 1016.8
20260505023023 17 298 0.0 0.0 0.00 0.00 0.00 55 1016.7
20260505021523 17 298 0.0 1.6 0.00 0.00 0.00 56 1016.6
20260505020022 17 298 0.0 0.0 0.00 0.00 0.00 55 1016.5
20260505014521 18 298 0.0 0.0 0.00 0.00 0.00 52 1016.2